This demonstration page uses our WeatherBlox Daily Observations layout. Learn more.

Left ArrowRight Arrow

Hourly Observations for November 5, 2022

Temp ( °F °C ) Dew Point ( °F °C ) Humidity (%) Winds ( mph kmh ) Pressure ( in mb ) Visibility ( mi km ) Precip ( " mm )
12:56 am 00:56 Clear 27 -2.8 23 -5 85 85 NW 7 11 29.83 1010 10 16 0.00 0.00
1:56 am 01:56 Clear 25 -3.9 22 -5.6 88 88 WNW 9 15 29.79 1009 10 16 0.00 0.00
2:56 am 02:56 Clear 26 -3.3 23 -5 88 88 WNW 7 11 29.77 1008 10 16 0.00 0.00
3:56 am 03:56 Clear 26 -3.3 22 -5.6 84 84 Calm 29.75 1007 10 16 0.00 0.00
4:56 am 04:56 Clear 26 -3.3 22 -5.6 84 84 W 5 7 29.70 1006 10 16 0.00 0.00
5:56 am 05:56 Clear 24 -4.4 19 -7.2 81 81 SW 3 6 29.68 1005 10 16 0.00 0.00
6:56 am 06:56 Clear 26 -3.3 21 -6.1 81 81 WSW 8 13 29.68 1005 10 16 0.00 0.00
7:56 am 07:56 Clear 25 -3.9 21 -6.1 85 85 WSW 6 9 29.65 1004 10 16 0.00 0.00
8:56 am 08:56 Sunny 27 -2.8 21 -6.1 78 78 WSW 8 13 29.65 1004 10 16 0.00 0.00
9:56 am 09:56 Sunny 33 0.6 22 -5.6 63 63 SW 12 19 29.62 1003 10 16 0.00 0.00
10:56 am 10:56 Sunny 39 3.9 25 -3.9 57 57 SW 13 20 29.60 1002 10 16 0.00 0.00
11:56 am 11:56 Sunny 46 7.8 25 -3.9 43 43 WSW 13 20 29.57 1002 10 16 0.00 0.00
12:56 pm 12:56 Sunny 54 12.2 26 -3.3 34 34 SW 16 26 29.52 1000 10 16 0.00 0.00
1:56 pm 13:56 Sunny 58 14.4 26 -3.3 29 29 SW 20 31 29.48 998 10 16 0.00 0.00
2:56 pm 14:56 Sunny 62 16.7 28 -2.2 27 27 SW 17 28 29.44 997 10 16 0.00 0.00
3:56 pm 15:56 Sunny 65 18.3 28 -2.2 25 25 WSW 17 28 29.43 997 10 16 0.00 0.00
4:56 pm 16:56 Sunny 66 18.9 27 -2.8 23 23 SW 20 31 29.41 996 10 16 0.00 0.00
5:56 pm 17:56 Sunny 63 17.2 28 -2.2 26 26 SSW 9 15 29.42 996 10 16 0.00 0.00
6:56 pm 18:56 Clear 55 12.8 28 -2.2 35 35 SSW 9 15 29.44 997 10 16 0.00 0.00
7:56 pm 19:56 Clear 56 13.3 28 -2.2 34 34 SSW 14 22 29.47 998 10 16 0.00 0.00
8:56 pm 20:56 Clear 59 15 27 -2.8 29 29 SSW 14 22 29.47 998 10 16 0.00 0.00
9:56 pm 21:56 Clear 54 12.2 27 -2.8 35 35 SSW 14 22 29.51 999 10 16 0.00 0.00
10:56 pm 22:56 Clear 54 12.2 29 -1.7 38 38 SSW 16 26 29.53 1000 10 16 0.00 0.00
11:56 pm 23:56 Clear 53 11.7 29 -1.7 39 39 SW 15 24 29.54 1001 10 16 0.00 0.00

Powered by AerisWeather